Location: Ku?niki
(51.4449°N, 17.8974°E)
Time: 09:08:55
(UTC+00:00)

EO-79 - Pass Details

Date: 05 July 2022
Orbit: 588 x 603 km, 98.0° (Epoch: 09 August)

Event Time Altitude Azimuth Distance (km) Brightness Sun altitude
Rises 01:34:59 0° 7° (N) 2,860 ? -7.7°
Reaches altitude 10° 01:37:19 10° 357° (N) 1,954 ? -7.5°
Maximum altitude 01:41:04 31° 295° (WNW) 1,061 ? -7.1°
Drops below altitude 10° 01:44:48 10° 233° (SW) 1,948 ? -6.7°
Enters shadow 01:45:15 - 230° (SW) 2,110 ? -6.7°
